User: anonymous   Login
Location: Caltech
(34.1382°N, 118.1253°W)
Time: 07:04:06
(UTC-07:00)
Language:

IRS-1A Rocket - Orbit

View from above orbital plane
View from above orbital plane
View from above satellite
View from above satellite

Ground track
Ground track

The orbit data is extracted from the following two-line orbital elements,

1 18961U 88021B   14304.49391079 -.00000138  00000-0 -60584-4 0  7740
2 18961 099.2842 280.1226 0053799 338.3320 129.0230 14.00696554361071
Epoch (UTC): 31 October 2014 11:51:13
Eccentricity: 0.0053799
inclination: 99.2842°
perigee height: 852 km
apogee height: 930 km
right ascension of ascending node: 280.1226°
argument of perigee: 338.3320°
revolutions per day: 14.00696554
mean anomaly at epoch: 129.0230°
orbit number at epoch: 36107

The dashed part of the orbit path shows where the satellite is in the earth's shadow,  

DLR